Starlink 3673

operational
NORAD ID: 52093 Int'l Des: 2022-029 Owner: SPXS Country: US Constellation: starlink
LEOCIRCULAR

About Starlink 3673

Description loading...

Live Position

Loading 3D Globe...

Upcoming Passes

Altitude History

Altitude vs Time

uPlot chart will show altitude changes over time

Two-Line Element Set

1 52093U 22029F 25304.30738611 .00000573 00000-0 54095-4 0 9999
2 52093 53.2176 309.9483 0001439 84.6032 275.5124 15.08837814201128
Epoch: Oct 31, 2025 • Age: 33 hours

Current Status

Altitude 559.3 km
Velocity 7.58 km/s
Sub-Earth Point -53.34°S, 70.4°W
Launch Date Mar 19, 2022
Age 3.6 years
Type internet

Technical Details

Classification Payload
Mass 297.00 kg
Dry Mass 275.00 kg
Total Mass 297.00 kg
Length 0.20 m
Diameter 2.80 m
Span 9.00 m
Shape Box + pan
Manufacturer SPXS
Bus Type Starlink
Phase Status In Orbit
Owner/State SPXS/US

Large Constellations

Loading constellations...